ANA611 RJGG-VHHH

Flight info

Callsign ANA611
Flight time N/A
Altitude 34000
Route KEC Y24 KOSHI Y50 IGMON A1 ELATO V522 ABBEY
Aircraft B77W/H-SDE1E2E3FGHIJ2J3J4J5M1RWXY/LB1D1

Departure

Time N/A
Airport Chubu Centrair International Airport (RJGG)

Arrival

Time 2026-05-06 05:00
Airport Hong Kong International Airport (VHHH)
Time Latitude Longitude Altitude Speed Heading
2026-05-06 02:51 29.38032 127.16596 34044 ft 413 kts 229°
2026-05-06 02:52 29.36236 127.14011 34028 ft 412 kts 228°
2026-05-06 02:52 29.32673 127.08884 34033 ft 413 kts 228°
2026-05-06 02:53 29.29105 127.03758 34036 ft 411 kts 228°
2026-05-06 02:53 29.25547 126.98653 34033 ft 413 kts 228°
2026-05-06 02:54 29.21939 126.93494 34028 ft 412 kts 228°
2026-05-06 02:54 29.18354 126.88376 34031 ft 415 kts 228°
2026-05-06 02:55 29.14758 126.83248 34038 ft 414 kts 228°
2026-05-06 02:55 29.11163 126.78127 34034 ft 415 kts 228°
2026-05-06 02:56 29.07532 126.72964 34023 ft 418 kts 228°
2026-05-06 02:56 29.03864 126.67753 34028 ft 418 kts 228°
2026-05-06 02:57 29.00204 126.62560 34024 ft 419 kts 228°
2026-05-06 02:57 28.96563 126.57400 34022 ft 419 kts 228°
2026-05-06 02:58 28.92913 126.52234 34023 ft 419 kts 228°
2026-05-06 02:58 28.89231 126.47030 34033 ft 422 kts 228°
2026-05-06 02:59 28.85517 126.41785 34045 ft 423 kts 227°
2026-05-06 02:59 28.81816 126.36567 34040 ft 423 kts 228°
2026-05-06 03:00 28.78078 126.31305 34047 ft 426 kts 228°
2026-05-06 03:00 28.74367 126.26084 34047 ft 426 kts 227°
2026-05-06 03:01 28.70647 126.20859 34042 ft 424 kts 227°
2026-05-06 03:01 28.66913 126.15620 34045 ft 427 kts 228°
2026-05-06 03:02 28.63182 126.10392 34040 ft 428 kts 227°
2026-05-06 03:02 28.59413 126.05116 34035 ft 427 kts 227°
2026-05-06 03:03 28.55674 125.99892 34042 ft 431 kts 228°
2026-05-06 03:03 28.51897 125.94620 34038 ft 429 kts 228°
2026-05-06 03:04 28.48135 125.89373 34044 ft 429 kts 228°
2026-05-06 03:04 28.44375 125.84138 34040 ft 430 kts 228°
2026-05-06 03:05 28.40577 125.78856 34032 ft 429 kts 228°
2026-05-06 03:05 28.36801 125.73611 34033 ft 430 kts 228°
2026-05-06 03:06 28.33012 125.68354 34034 ft 428 kts 229°
2026-05-06 03:06 28.29242 125.63130 34034 ft 431 kts 228°
2026-05-06 03:07 28.25436 125.57863 34031 ft 430 kts 228°
2026-05-06 03:07 28.21623 125.52593 34018 ft 435 kts 229°
2026-05-06 03:08 28.17799 125.47315 34015 ft 432 kts 228°
2026-05-06 03:08 28.13991 125.42064 34014 ft 433 kts 229°
2026-05-06 03:09 28.10159 125.36787 34012 ft 433 kts 228°
2026-05-06 03:09 28.06349 125.31546 34019 ft 431 kts 228°
2026-05-06 03:10 28.02511 125.26275 34021 ft 434 kts 228°
2026-05-06 03:10 27.98686 125.21027 34019 ft 432 kts 228°
2026-05-06 03:11 27.94856 125.15778 34016 ft 433 kts 228°
2026-05-06 03:11 27.91034 125.10548 34017 ft 431 kts 228°
2026-05-06 03:12 27.87197 125.05304 34034 ft 434 kts 228°
2026-05-06 03:12 27.83371 125.00079 34030 ft 432 kts 228°
2026-05-06 03:13 27.79541 124.94857 34025 ft 432 kts 229°
2026-05-06 03:13 27.75695 124.89619 34023 ft 436 kts 229°
2026-05-06 03:14 27.71817 124.84345 34020 ft 436 kts 229°
2026-05-06 03:14 27.67911 124.79039 34025 ft 440 kts 230°
2026-05-06 03:15 27.64005 124.73739 34019 ft 441 kts 230°
2026-05-06 03:15 27.60083 124.68423 34021 ft 444 kts 230°
2026-05-06 03:16 27.56143 124.63090 34017 ft 441 kts 230°
2026-05-06 03:16 27.52202 124.57761 34015 ft 446 kts 231°
2026-05-06 03:17 27.48203 124.52361 34022 ft 446 kts 231°
2026-05-06 03:17 27.44240 124.47018 34011 ft 447 kts 231°
2026-05-06 03:18 27.40251 124.41644 34015 ft 450 kts 231°
2026-05-06 03:18 27.36242 124.36252 34014 ft 452 kts 231°
2026-05-06 03:19 27.32175 124.30786 34023 ft 453 kts 231°
2026-05-06 03:19 27.28121 124.25346 34027 ft 456 kts 231°
2026-05-06 03:20 27.22036 124.17194 34025 ft 458 kts 231°
2026-05-06 03:20 27.17931 124.11701 34025 ft 458 kts 231°
2026-05-06 03:21 27.13829 124.06221 34027 ft 459 kts 232°
2026-05-06 03:21 27.09727 124.00748 34028 ft 458 kts 232°
2026-05-06 03:22 27.05619 123.95278 34029 ft 459 kts 231°
2026-05-06 03:22 27.01460 123.89754 34025 ft 461 kts 232°
2026-05-06 03:23 26.97359 123.84312 34027 ft 461 kts 232°
2026-05-06 03:23 26.93226 123.78835 34035 ft 461 kts 232°
2026-05-06 03:24 26.89073 123.73337 34031 ft 463 kts 232°
2026-05-06 03:24 26.84913 123.67839 34016 ft 460 kts 232°
2026-05-06 03:25 26.80734 123.62319 34007 ft 465 kts 233°
2026-05-06 03:25 26.76551 123.56802 34007 ft 466 kts 233°
2026-05-06 03:26 26.72366 123.51291 33999 ft 462 kts 233°
2026-05-06 03:26 26.68160 123.45758 33994 ft 466 kts 234°
2026-05-06 03:27 26.63971 123.40253 33991 ft 469 kts 233°
2026-05-06 03:27 26.59736 123.34699 33985 ft 468 kts 233°
2026-05-06 03:28 26.55477 123.29118 34002 ft 473 kts 233°
2026-05-06 03:28 26.51209 123.23533 33997 ft 474 kts 234°
2026-05-06 03:29 26.46929 123.17939 33993 ft 473 kts 234°
2026-05-06 03:29 26.42624 123.12318 33993 ft 476 kts 234°
2026-05-06 03:30 26.38306 123.06690 33986 ft 478 kts 234°
2026-05-06 03:30 26.33974 123.01050 33993 ft 478 kts 234°
2026-05-06 03:31 26.29635 122.95409 33995 ft 481 kts 234°
2026-05-06 03:31 26.25316 122.89803 33987 ft 479 kts 235°
2026-05-06 03:32 26.20965 122.84162 33999 ft 480 kts 235°
2026-05-06 03:32 26.16619 122.78535 33987 ft 479 kts 235°
2026-05-06 03:33 26.12272 122.72913 33992 ft 478 kts 235°
2026-05-06 03:33 26.07926 122.67299 33986 ft 479 kts 235°
2026-05-06 03:34 26.03563 122.61671 33990 ft 479 kts 236°
2026-05-06 03:34 25.99185 122.56028 33990 ft 481 kts 236°
2026-05-06 03:35 25.94829 122.50424 34003 ft 477 kts 236°
2026-05-06 03:35 25.90471 122.44820 33985 ft 478 kts 236°
2026-05-06 03:36 25.86116 122.39227 33975 ft 477 kts 236°
2026-05-06 03:36 25.81772 122.33652 33988 ft 480 kts 236°
2026-05-06 03:37 25.77385 122.28031 33990 ft 479 kts 236°
2026-05-06 03:37 25.73013 122.22437 33994 ft 479 kts 236°
2026-05-06 03:38 25.68625 122.16826 33992 ft 483 kts 236°
2026-05-06 03:38 25.64220 122.11204 33991 ft 481 kts 237°
2026-05-06 03:39 25.59792 122.05550 33982 ft 485 kts 237°
2026-05-06 03:39 25.55383 121.99917 33992 ft 481 kts 237°
2026-05-06 03:40 25.50995 121.94340 33990 ft 481 kts 236°
2026-05-06 03:40 25.46601 121.88764 33996 ft 481 kts 237°
2026-05-06 03:41 25.42197 121.83179 33989 ft 479 kts 237°
2026-05-06 03:41 25.37805 121.77617 33995 ft 482 kts 237°
2026-05-06 03:42 25.33399 121.72046 33994 ft 480 kts 237°
2026-05-06 03:42 25.28988 121.66474 33995 ft 477 kts 237°
2026-05-06 03:43 25.24614 121.60950 33997 ft 482 kts 237°
2026-05-06 03:43 25.20188 121.55377 33998 ft 477 kts 237°
2026-05-06 03:44 25.15819 121.49835 34003 ft 480 kts 237°
2026-05-06 03:44 25.11501 121.44222 33988 ft 473 kts 238°
2026-05-06 03:45 25.07208 121.38646 33992 ft 478 kts 238°
2026-05-06 03:45 25.02913 121.33082 34003 ft 478 kts 237°
2026-05-06 03:46 24.98609 121.27516 34008 ft 473 kts 237°
2026-05-06 03:46 24.94346 121.22007 34005 ft 475 kts 237°
2026-05-06 03:47 24.90058 121.16476 34013 ft 472 kts 237°
2026-05-06 03:47 24.85762 121.10940 33996 ft 475 kts 237°
2026-05-06 03:48 24.81483 121.05433 33996 ft 474 kts 237°
2026-05-06 03:48 24.77158 120.99868 33983 ft 474 kts 237°
2026-05-06 03:49 24.72884 120.94376 33975 ft 473 kts 236°
2026-05-06 03:49 24.68576 120.88828 33986 ft 472 kts 239°
2026-05-06 03:50 24.64676 120.83104 33997 ft 470 kts 240°
2026-05-06 03:50 24.60798 120.77335 33986 ft 468 kts 240°
2026-05-06 03:51 24.56904 120.71546 33974 ft 469 kts 240°
2026-05-06 03:51 24.53039 120.65808 33979 ft 470 kts 240°
2026-05-06 03:52 24.49157 120.60053 33982 ft 468 kts 240°
2026-05-06 03:52 24.45283 120.54314 33979 ft 469 kts 240°
2026-05-06 03:53 24.41381 120.48543 33971 ft 467 kts 240°
2026-05-06 03:53 24.37497 120.42803 33975 ft 470 kts 240°
2026-05-06 03:54 24.33591 120.37039 33976 ft 468 kts 240°
2026-05-06 03:54 24.29690 120.31289 33983 ft 469 kts 239°
2026-05-06 03:55 24.25807 120.25571 33981 ft 469 kts 239°
2026-05-06 03:55 24.21914 120.19844 33978 ft 470 kts 239°
2026-05-06 03:56 24.17985 120.14074 33976 ft 469 kts 239°
2026-05-06 03:56 24.14111 120.08389 33976 ft 469 kts 239°
2026-05-06 03:57 24.10209 120.02671 33975 ft 467 kts 239°
2026-05-06 03:57 24.06314 119.96970 33971 ft 469 kts 238°
2026-05-06 03:58 24.02418 119.91271 33970 ft 468 kts 239°
2026-05-06 03:58 23.98477 119.85516 33970 ft 469 kts 238°
2026-05-06 03:59 23.94598 119.79858 33969 ft 467 kts 239°
2026-05-06 03:59 23.90694 119.74169 33970 ft 470 kts 238°
2026-05-06 04:00 23.86765 119.68451 33965 ft 467 kts 238°
2026-05-06 04:00 23.82845 119.62750 33969 ft 470 kts 238°
2026-05-06 04:01 23.78923 119.57055 33961 ft 467 kts 238°
2026-05-06 04:01 23.75014 119.51385 33964 ft 468 kts 238°
2026-05-06 04:02 23.71086 119.45694 33964 ft 467 kts 238°
2026-05-06 04:02 23.67180 119.40041 33965 ft 467 kts 238°
2026-05-06 04:03 23.63261 119.34373 33967 ft 468 kts 238°
2026-05-06 04:03 23.59327 119.28695 33979 ft 468 kts 238°
2026-05-06 04:04 23.55419 119.23058 33974 ft 467 kts 238°
2026-05-06 04:04 23.51487 119.17392 33967 ft 466 kts 238°
2026-05-06 04:05 23.47581 119.11771 33974 ft 466 kts 238°
2026-05-06 04:05 23.43638 119.06102 33972 ft 466 kts 238°
2026-05-06 04:06 23.39733 119.00494 33963 ft 466 kts 238°
2026-05-06 04:06 23.35798 118.94849 33962 ft 466 kts 238°
2026-05-06 04:07 23.31871 118.89223 33959 ft 466 kts 237°
2026-05-06 04:07 23.27976 118.83649 33962 ft 465 kts 237°
2026-05-06 04:08 23.24028 118.78005 33964 ft 464 kts 237°
2026-05-06 04:08 23.20114 118.72414 33959 ft 466 kts 238°
2026-05-06 04:09 23.16203 118.66835 33960 ft 466 kts 237°
2026-05-06 04:09 23.12267 118.61226 33955 ft 464 kts 237°
2026-05-06 04:10 23.08334 118.55628 33954 ft 463 kts 237°
2026-05-06 04:10 23.04425 118.50070 33952 ft 463 kts 237°
2026-05-06 04:11 23.00517 118.44518 33956 ft 465 kts 237°
2026-05-06 04:11 22.96568 118.38915 33953 ft 463 kts 237°
2026-05-06 04:12 22.92654 118.33369 33961 ft 463 kts 237°
2026-05-06 04:12 22.88733 118.27815 33963 ft 464 kts 237°
2026-05-06 04:13 22.84811 118.22269 33964 ft 463 kts 237°
2026-05-06 04:13 22.80895 118.16737 33962 ft 463 kts 237°
2026-05-06 04:14 22.76947 118.11164 33962 ft 465 kts 237°
2026-05-06 04:14 22.73038 118.05653 33957 ft 462 kts 237°
2026-05-06 04:15 22.69095 118.00099 33959 ft 464 kts 237°
2026-05-06 04:15 22.65162 117.94566 33957 ft 464 kts 237°
2026-05-06 04:16 22.61204 117.89003 33958 ft 464 kts 237°
2026-05-06 04:16 22.57260 117.83467 33958 ft 464 kts 237°
2026-05-06 04:17 22.53333 117.77959 33954 ft 464 kts 237°
2026-05-06 04:17 22.49379 117.72420 33956 ft 464 kts 237°
2026-05-06 04:18 22.45436 117.66902 33954 ft 463 kts 236°
2026-05-06 04:18 22.41497 117.61395 33958 ft 463 kts 236°
2026-05-06 04:19 22.37540 117.55867 33958 ft 463 kts 237°
2026-05-06 04:19 22.34468 117.49867 33957 ft 454 kts 253°
2026-05-06 04:20 22.33256 117.43224 33958 ft 449 kts 269°
2026-05-06 04:20 22.33103 117.36489 33961 ft 448 kts 270°
2026-05-06 04:21 22.32979 117.29797 33969 ft 450 kts 270°
2026-05-06 04:21 22.32852 117.23035 33972 ft 449 kts 270°
2026-05-06 04:22 22.32723 117.16284 33974 ft 450 kts 270°
2026-05-06 04:23 22.32525 117.06135 33977 ft 451 kts 271°
2026-05-06 04:23 22.32390 116.99397 33973 ft 450 kts 270°
2026-05-06 04:24 22.32253 116.92650 33972 ft 451 kts 270°
2026-05-06 04:24 22.32111 116.85841 33971 ft 451 kts 270°
2026-05-06 04:25 22.31968 116.79080 33971 ft 452 kts 270°
2026-05-06 04:25 22.31821 116.72298 33971 ft 451 kts 270°
2026-05-06 04:26 22.31671 116.65507 33969 ft 451 kts 270°
2026-05-06 04:26 22.31519 116.58760 33969 ft 451 kts 270°
2026-05-06 04:27 22.31364 116.51977 33968 ft 452 kts 270°
2026-05-06 04:27 22.31206 116.45196 33969 ft 452 kts 270°
2026-05-06 04:28 22.31045 116.38422 33970 ft 453 kts 270°
2026-05-06 04:28 22.30881 116.31623 33973 ft 454 kts 270°
2026-05-06 04:29 22.30714 116.24829 33965 ft 453 kts 270°
2026-05-06 04:29 22.30545 116.18039 33962 ft 452 kts 270°
2026-05-06 04:30 22.30371 116.11205 33961 ft 452 kts 270°
2026-05-06 04:30 22.30197 116.04458 33832 ft 447 kts 270°
2026-05-06 04:30 22.30109 116.01085 33089 ft 447 kts 269°
2026-05-06 04:31 22.30021 115.97744 32207 ft 449 kts 269°
2026-05-06 04:31 22.29932 115.94398 31343 ft 452 kts 269°
2026-05-06 04:31 22.29842 115.91022 30517 ft 453 kts 269°
2026-05-06 04:31 22.29751 115.87650 30036 ft 446 kts 269°
2026-05-06 04:32 22.29661 115.84319 29567 ft 453 kts 269°
2026-05-06 04:32 22.29568 115.80879 29015 ft 462 kts 269°
2026-05-06 04:32 22.29477 115.77430 28457 ft 461 kts 269°
2026-05-06 04:32 22.29387 115.73998 27895 ft 457 kts 269°
2026-05-06 04:33 22.29295 115.70551 27324 ft 453 kts 269°
2026-05-06 04:33 22.29205 115.67194 26763 ft 449 kts 269°
2026-05-06 04:33 22.29115 115.63848 26189 ft 445 kts 269°
2026-05-06 04:33 22.29025 115.60540 25621 ft 442 kts 269°
2026-05-06 04:34 22.28935 115.57254 25051 ft 439 kts 269°
2026-05-06 04:34 22.28844 115.53979 24477 ft 435 kts 268°
2026-05-06 04:34 22.28754 115.50750 23913 ft 432 kts 268°
2026-05-06 04:34 22.28664 115.47525 23345 ft 429 kts 268°
2026-05-06 04:35 22.28573 115.44315 22778 ft 426 kts 268°
2026-05-06 04:35 22.28483 115.41137 22213 ft 424 kts 268°
2026-05-06 04:35 22.28392 115.37980 21640 ft 421 kts 268°
2026-05-06 04:35 22.28302 115.34842 21067 ft 419 kts 268°
2026-05-06 04:36 22.28210 115.31702 20495 ft 417 kts 268°
2026-05-06 04:36 22.28116 115.28621 19928 ft 414 kts 268°
2026-05-06 04:36 22.28021 115.25507 19352 ft 412 kts 268°
2026-05-06 04:36 22.27926 115.22424 18769 ft 410 kts 268°
2026-05-06 04:37 22.27785 115.19393 18258 ft 405 kts 263°
2026-05-06 04:37 22.27239 115.16473 18198 ft 389 kts 254°
2026-05-06 04:37 22.26321 115.13802 18162 ft 377 kts 248°
2026-05-06 04:37 22.25260 115.11097 17827 ft 396 kts 248°
2026-05-06 04:38 22.24180 115.08363 17276 ft 398 kts 248°
2026-05-06 04:38 22.23097 115.05623 16725 ft 396 kts 248°
2026-05-06 04:38 22.22030 115.02924 16163 ft 394 kts 248°
2026-05-06 04:38 22.20956 115.00212 15585 ft 393 kts 248°
2026-05-06 04:39 22.19884 114.97505 15002 ft 391 kts 248°
2026-05-06 04:39 22.18824 114.94830 14429 ft 383 kts 248°
2026-05-06 04:39 22.17799 114.92245 13877 ft 375 kts 248°
2026-05-06 04:39 22.16774 114.89663 13330 ft 368 kts 248°
2026-05-06 04:40 22.15788 114.87179 12794 ft 360 kts 248°
2026-05-06 04:40 22.14805 114.84702 12292 ft 354 kts 248°
2026-05-06 04:40 22.13845 114.82287 11758 ft 353 kts 248°
2026-05-06 04:40 22.12877 114.79849 11223 ft 352 kts 248°
2026-05-06 04:41 22.11917 114.77438 10831 ft 347 kts 248°
2026-05-06 04:41 22.10988 114.75105 10722 ft 333 kts 248°
2026-05-06 04:41 22.10101 114.72877 10604 ft 320 kts 248°
2026-05-06 04:41 22.09231 114.70692 10498 ft 308 kts 248°
2026-05-06 04:42 22.08396 114.68599 10363 ft 298 kts 248°
2026-05-06 04:42 22.07596 114.66593 10218 ft 288 kts 248°
2026-05-06 04:42 22.06814 114.64630 10077 ft 278 kts 248°
2026-05-06 04:42 22.06058 114.62734 9787 ft 276 kts 248°
2026-05-06 04:43 22.05360 114.60840 9456 ft 272 kts 258°
2026-05-06 04:43 22.05240 114.58852 9433 ft 257 kts 273°
2026-05-06 04:43 22.05364 114.56936 9379 ft 263 kts 274°
2026-05-06 04:43 22.05503 114.54928 9261 ft 274 kts 274°
2026-05-06 04:44 22.05646 114.52870 9153 ft 278 kts 274°
2026-05-06 04:44 22.05791 114.50793 9054 ft 277 kts 274°
2026-05-06 04:44 22.05934 114.48732 8958 ft 278 kts 274°
2026-05-06 04:44 22.06078 114.46651 8851 ft 277 kts 274°
2026-05-06 04:45 22.06221 114.44582 8759 ft 277 kts 274°
2026-05-06 04:45 22.06363 114.42518 8667 ft 278 kts 274°
2026-05-06 04:45 22.06507 114.40431 8568 ft 278 kts 274°
2026-05-06 04:45 22.06650 114.38357 8472 ft 278 kts 274°
2026-05-06 04:46 22.06792 114.36287 8374 ft 277 kts 274°
2026-05-06 04:46 22.06933 114.34225 8279 ft 277 kts 274°
2026-05-06 04:46 22.07074 114.32165 8183 ft 277 kts 274°
2026-05-06 04:46 22.07216 114.30075 8090 ft 277 kts 274°
2026-05-06 04:47 22.07357 114.28002 7986 ft 277 kts 274°
2026-05-06 04:47 22.07497 114.25950 7888 ft 276 kts 274°
2026-05-06 04:47 22.07637 114.23880 7779 ft 277 kts 273°
2026-05-06 04:47 22.07777 114.21821 7604 ft 277 kts 273°
2026-05-06 04:48 22.07916 114.19766 7415 ft 276 kts 273°
2026-05-06 04:48 22.08055 114.17706 7224 ft 275 kts 273°
2026-05-06 04:48 22.08193 114.15659 7031 ft 275 kts 273°
2026-05-06 04:48 22.08332 114.13587 6840 ft 276 kts 273°
2026-05-06 04:49 22.08469 114.11538 6647 ft 276 kts 273°
2026-05-06 04:49 22.08609 114.09452 6453 ft 276 kts 273°
2026-05-06 04:49 22.08747 114.07394 6257 ft 276 kts 273°
2026-05-06 04:49 22.08884 114.05340 6054 ft 275 kts 273°
2026-05-06 04:50 22.09021 114.03282 5862 ft 275 kts 273°
2026-05-06 04:50 22.09158 114.01226 5671 ft 275 kts 273°
2026-05-06 04:50 22.09294 113.99170 5475 ft 274 kts 273°
2026-05-06 04:50 22.09430 113.97116 5278 ft 273 kts 273°
2026-05-06 04:51 22.09564 113.95084 5084 ft 273 kts 272°
2026-05-06 04:51 22.09699 113.93047 4893 ft 273 kts 272°
2026-05-06 04:51 22.09834 113.90995 4693 ft 273 kts 273°
2026-05-06 04:51 22.09967 113.88961 4512 ft 272 kts 272°
2026-05-06 04:52 22.10100 113.86937 4366 ft 273 kts 272°
2026-05-06 04:52 22.10234 113.84895 4221 ft 272 kts 273°
2026-05-06 04:52 22.10367 113.82861 4077 ft 272 kts 273°
2026-05-06 04:52 22.10497 113.80860 3978 ft 262 kts 272°
2026-05-06 04:53 22.10811 113.78980 3953 ft 255 kts 292°
2026-05-06 04:53 22.11849 113.77441 3955 ft 253 kts 319°
2026-05-06 04:53 22.13309 113.76354 3779 ft 256 kts 331°
2026-05-06 04:53 22.14881 113.75497 3503 ft 254 kts 335°
2026-05-06 04:54 22.16474 113.74695 3216 ft 252 kts 336°
2026-05-06 04:54 22.18071 113.73899 2911 ft 245 kts 336°
2026-05-06 04:54 22.19577 113.73148 2628 ft 238 kts 336°
2026-05-06 04:54 22.21073 113.72401 2369 ft 230 kts 337°
2026-05-06 04:55 22.22542 113.71874 2149 ft 216 kts 360°
2026-05-06 04:55 22.23939 113.72144 2022 ft 196 kts 27°
2026-05-06 04:55 22.25089 113.72897 1915 ft 188 kts 39°
2026-05-06 04:55 22.26100 113.73765 1792 ft 183 kts 43°
2026-05-06 04:56 22.27055 113.74644 1672 ft 180 kts 44°
2026-05-06 04:56 22.27955 113.75597 1546 ft 178 kts 60°
2026-05-06 04:56 22.28471 113.76789 1478 ft 176 kts 72°
2026-05-06 04:56 22.28849 113.78064 1470 ft 176 kts 73°
2026-05-06 04:57 22.29243 113.79279 1461 ft 168 kts 72°
2026-05-06 04:57 22.29624 113.80437 1449 ft 159 kts 73°
2026-05-06 04:57 22.29981 113.81538 1260 ft 150 kts 73°
2026-05-06 04:57 22.30317 113.82573 1083 ft 145 kts 73°
2026-05-06 04:58 22.30647 113.83591 903 ft 143 kts 73°
2026-05-06 04:58 22.30976 113.84603 719 ft 142 kts 73°
2026-05-06 04:58 22.31233 113.85396 574 ft 142 kts 72°
2026-05-06 04:58 22.31562 113.86409 370 ft 141 kts 72°
2026-05-06 04:59 22.31890 113.87400 193 ft 141 kts 72°
2026-05-06 04:59 22.32212 113.88399 31 ft 140 kts 72°
2026-05-06 04:59 22.32496 113.89298 16 ft 106 kts 69°
2026-05-06 04:59 22.32703 113.89931 16 ft 74 kts 71°
2026-05-06 05:00 22.32816 113.90316 16 ft 42 kts 83°
2026-05-06 05:00 22.32796 113.90542 16 ft 24 kts 101°
2026-05-06 05:00 22.32777 113.90660 16 ft 11 kts 91°
2026-05-06 05:00 22.32790 113.90741 16 ft 11 kts 73°
2026-05-06 05:01 22.32819 113.90833 16 ft 14 kts 70°
2026-05-06 05:01 22.32858 113.90952 16 ft 19 kts 71°
2026-05-06 05:01 22.32907 113.91108 16 ft 23 kts 71°
2026-05-06 05:01 22.32964 113.91293 16 ft 28 kts 72°
2026-05-06 05:02 22.33031 113.91495 16 ft 28 kts 71°
2026-05-06 05:02 22.33095 113.91698 16 ft 28 kts 71°
2026-05-06 05:02 22.33161 113.91902 16 ft 28 kts 70°
2026-05-06 05:02 22.33213 113.92078 16 ft 20 kts 93°
2026-05-06 05:03 22.33096 113.92161 16 ft 22 kts 161°
2026-05-06 05:03 22.32931 113.92223 16 ft 26 kts 160°
2026-05-06 05:03 22.32753 113.92291 17 ft 26 kts 161°
2026-05-06 05:03 22.32579 113.92358 19 ft 26 kts 161°
2026-05-06 05:04 22.32408 113.92422 22 ft 25 kts 161°
2026-05-06 05:04 22.32274 113.92472 25 ft 16 kts 151°
2026-05-06 05:04 22.32265 113.92584 27 ft 16 kts 71°
2026-05-06 05:04 22.32225 113.92681 28 ft 16 kts 158°
2026-05-06 05:05 22.32109 113.92718 32 ft 17 kts 163°
2026-05-06 05:05 22.31986 113.92763 34 ft 19 kts 161°
2026-05-06 05:05 22.31858 113.92815 38 ft 20 kts 157°
2026-05-06 05:05 22.31726 113.92871 41 ft 19 kts 161°
2026-05-06 05:06 22.31603 113.92918 46 ft 15 kts 160°
2026-05-06 05:06 22.31528 113.92907 46 ft 12 kts 232°
2026-05-06 05:06 22.31490 113.92804 45 ft 17 kts 257°
2026-05-06 05:06 22.31531 113.92668 43 ft 19 kts 295°
2026-05-06 05:07 22.31585 113.92550 40 ft 10 kts 291°
2026-05-06 05:07 22.31570 113.92516 40 ft 4 kts 215°
2026-05-06 05:07 22.31549 113.92503 40 ft 3 kts 207°
2026-05-06 05:07 22.31530 113.92493 40 ft 2 kts 206°
2026-05-06 05:08 22.31512 113.92484 40 ft 2 kts 205°
2026-05-06 05:08 22.31508 113.92481 40 ft 0 kts 205°